Madrid, Spain

12:12 PM CEST on July 25, 2017 (GMT +0200)
Madrid-Barajas Airport

Weather History for LEMD - February, 2013

Change the Weather History Date:

Monday, February 18, 2013

  Actual Average Record
Temperature  
Mean Temperature 48 °F -  
Max Temperature 55 °F 57 °F 66 °F (1998)
Min Temperature 42 °F 36 °F 21 °F (2003)
Degree Days  
Heating Degree Days 16    
Moisture  
Dew Point 43 °F    
Average Humidity 82    
Maximum Humidity 100    
Minimum Humidity 47    
Precipitation  
Precipitation 0.01 in 0.05 in - ()
Sea Level Pressure  
Sea Level Pressure 29.89 in    
Wind  
Wind Speed 4 mph ()    
Max Wind Speed 8 mph    
Max Gust Speed 20 mph    
Visibility 5.0 miles    
Events Rain    
Averages and records for this station are not official NWS values.
T = Trace of Precipitation, MM = Missing Value Source: Averaged Metar Reports

Daily Weather History Graph

Daily Weather History Graph

Search for Another Location

Airport or City:

Trip Planner

Search our weather history database for the weather conditions in past years. The results will help you decide how hot, cold, wet, or windy it might be!

Date:

Astronomy

Feb. 18, 2013 Rise Set
Actual Time 8:03 AM CET 6:53 PM CET
Civil Twilight 7:35 AM CET 7:20 PM CET
Nautical Twilight 7:04 AM CET 7:52 PM CET
Astronomical Twilight 6:32 AM CET 8:24 PM CET
Moon 12:28 PM CET (2/18) 2:30 AM CET (2/18)
Length of Visible Light 11h 44m
Length of Day
10h 49m
First Quarter, 56% of the Moon is Illuminated
Feb 18
First Quarter
Feb 25
Full
Mar 4
Last Quarter
Mar 11
New
Mar 19
First Quarter

Hourly Weather History & Observations

Time (CET) Temp. Windchill Dew Point Humidity Pressure Visibility Wind Dir Wind Speed Gust Speed Precip Events Conditions
12:00 AM 46.4 °F 44.3 °F 44.6 °F 93% 29.92 in 6.2 mi South 4.6 mph - N/A   Light Drizzle
12:30 AM 44.6 °F 42.2 °F 44.6 °F 100% 29.92 in 6.2 mi SSE 4.6 mph - N/A   Mostly Cloudy
1:00 AM 45 °F - 43 °F 88% 29.94 in 2 mi SSE 4.6 mph - -   Mist
1:00 AM 44.6 °F 43.1 °F 44.6 °F 100% 29.92 in 6.2 mi South 3.5 mph - N/A   Scattered Clouds
1:30 AM 44.6 °F 43.1 °F 44.6 °F 100% 29.92 in 2.5 mi SSE 3.5 mph - N/A   Scattered Clouds
2:00 AM 46.4 °F 43.5 °F 44.6 °F 93% 29.89 in 3.1 mi South 5.8 mph - N/A   Mostly Cloudy
2:30 AM 46.4 °F 44.3 °F 44.6 °F 93% 29.89 in 2.5 mi South 4.6 mph - N/A   Mostly Cloudy
3:00 AM 46.4 °F 44.3 °F 44.6 °F 93% 29.89 in 2.5 mi South 4.6 mph - N/A   Mostly Cloudy
3:30 AM 46.4 °F 43.5 °F 44.6 °F 93% 29.89 in 2.5 mi South 5.8 mph - N/A   Mostly Cloudy
4:00 AM 46.4 °F 44.3 °F 44.6 °F 93% 29.89 in 2.5 mi South 4.6 mph - N/A   Mostly Cloudy
4:30 AM 46.4 °F 43.5 °F 46.4 °F 100% 29.89 in 2.5 mi South 5.8 mph - N/A   Mostly Cloudy
5:00 AM 46.4 °F 44.3 °F 44.6 °F 93% 29.89 in 2.5 mi South 4.6 mph - N/A   Mostly Cloudy
5:30 AM 46.4 °F 44.3 °F 44.6 °F 93% 29.89 in 2.5 mi South 4.6 mph - N/A   Mostly Cloudy
6:00 AM 46.4 °F - 44.6 °F 93% 29.89 in 2.5 mi South 2.3 mph - N/A   Light Drizzle
6:30 AM 46.4 °F 45.2 °F 44.6 °F 93% 29.89 in 2.8 mi South 3.5 mph - N/A   Mostly Cloudy
7:00 AM 45 °F - 43 °F 89% 29.92 in 2 mi South 4.6 mph - - Rain Light Drizzle
7:00 AM 46.4 °F 45.2 °F 44.6 °F 93% 29.89 in - South 3.5 mph - N/A   Mostly Cloudy
7:30 AM 46.4 °F - 44.6 °F 93% 29.89 in 2.8 mi SSE 2.3 mph - N/A   Mostly Cloudy
8:00 AM 46.4 °F 43.5 °F 44.6 °F 93% 29.89 in 2.8 mi South 5.8 mph - N/A   Mostly Cloudy
8:30 AM 46.4 °F 44.3 °F 44.6 °F 93% 29.89 in 2.8 mi South 4.6 mph - N/A   Mostly Cloudy
9:00 AM 46.4 °F 43.5 °F 46.4 °F 100% 29.89 in 3.1 mi South 5.8 mph 17.3 mph N/A   Mostly Cloudy
9:30 AM 46.4 °F 43.5 °F 44.6 °F 93% 29.92 in 4.3 mi South 5.8 mph - N/A   Mostly Cloudy
10:00 AM 46.4 °F 44.3 °F 44.6 °F 93% 29.92 in 5.0 mi South 4.6 mph - N/A   Mostly Cloudy
10:30 AM 46.4 °F 44.3 °F 46.4 °F 100% 29.92 in 5.0 mi SSE 4.6 mph - N/A   Mostly Cloudy
11:00 AM 46.4 °F 43.5 °F 46.4 °F 100% 29.92 in 5.0 mi South 5.8 mph 17.3 mph N/A   Mostly Cloudy
11:30 AM 48.2 °F - 46.4 °F 93% 29.92 in 5.0 mi South 4.6 mph 16.1 mph N/A   Mostly Cloudy
12:00 PM 48.2 °F - 46.4 °F 93% 29.92 in 5.0 mi SSE 4.6 mph - N/A   Mostly Cloudy
12:30 PM 48.2 °F - 46.4 °F 93% 29.92 in 6.2 mi Variable 2.3 mph - N/A   Scattered Clouds
1:00 PM 49 °F - 44 °F 76% 29.93 in 9 mi South 3.5 mph - - Rain Light Rain
1:00 PM 50.0 °F - 46.4 °F 87% 29.92 in 6.2 mi South 2.3 mph - N/A   Scattered Clouds
1:30 PM 50.0 °F - 46.4 °F 87% 29.92 in 6.2 mi SSE 4.6 mph - N/A   Scattered Clouds
2:00 PM 51.8 °F - 42.8 °F 71% 29.89 in 6.2 mi South 3.5 mph 15.0 mph N/A   Scattered Clouds
2:30 PM 51.8 °F - 44.6 °F 76% 29.89 in 6.2 mi SSE 3.5 mph - N/A   Scattered Clouds
3:00 PM 53.6 °F - 41.0 °F 62% 29.89 in 6.2 mi Variable 1.2 mph - N/A   Mostly Cloudy
3:30 PM 55.4 °F - 39.2 °F 54% 29.86 in 6.2 mi SSE 6.9 mph - N/A   Mostly Cloudy
4:00 PM 55.4 °F - 41.0 °F 58% 29.86 in 6.2 mi South 6.9 mph - N/A   Scattered Clouds
4:30 PM 55.4 °F - 35.6 °F 47% 29.86 in 6.2 mi SSW 8.1 mph 19.6 mph N/A   Scattered Clouds
5:00 PM 55.4 °F - 37.4 °F 51% 29.86 in 6.2 mi SW 5.8 mph 19.6 mph N/A   Scattered Clouds
5:30 PM 55.4 °F - 37.4 °F 51% 29.86 in 6.2 mi Variable 1.2 mph - N/A   Scattered Clouds
6:00 PM 53.6 °F - 39.2 °F 58% 29.86 in 6.2 mi SSW 5.8 mph 17.3 mph N/A   Scattered Clouds
6:30 PM 51.8 °F - 37.4 °F 58% 29.86 in 6.2 mi Calm Calm - N/A   Partly Cloudy
7:00 PM 49 °F - 38 °F 55% 29.86 in 19 mi ENE 3.5 mph - -   Scattered Clouds
7:00 PM 50.0 °F - 39.2 °F 66% 29.83 in - East 2.3 mph - N/A   Clear
7:30 PM 48.2 °F - 37.4 °F 66% 29.83 in - ENE 2.3 mph - N/A   Clear
8:00 PM 48.2 °F - 37.4 °F 66% 29.86 in - Variable 2.3 mph - N/A   Clear
8:30 PM 50.0 °F - 37.4 °F 62% 29.86 in - East 4.6 mph - N/A   Clear
9:00 PM 48.2 °F - 37.4 °F 66% 29.86 in - Variable 2.3 mph - N/A   Clear
9:30 PM 44.6 °F 43.1 °F 39.2 °F 81% 29.86 in - North 3.5 mph - N/A   Clear
10:00 PM 44.6 °F 43.1 °F 39.2 °F 81% 29.86 in - North 3.5 mph - N/A   Clear
10:30 PM 42.8 °F 41.1 °F 39.2 °F 87% 29.86 in 6.2 mi North 3.5 mph - N/A   Scattered Clouds
11:00 PM 44.6 °F - 39.2 °F 81% 29.86 in 6.2 mi North 2.3 mph - N/A   Scattered Clouds
11:30 PM 44.6 °F - 39.2 °F 81% 29.89 in 6.2 mi NNW 2.3 mph - N/A   Scattered Clouds